Retour au catalogue

SCOUT G-1 DEB

ActifPO
NORAD 40216·DEBRIS·🇺🇸 United States

Lancé Nov 14, 1986 depuis Vandenberg Space Force Base

Loading…

Prochains Passages (prochaines 24 heures)

TLE

VieillissantSource: Space-Track

Époque: Sep 9, 2026, 12:22 UTC

1 40216U 86088E   26252.51590952  .00002743  00000-0  18342-2 0  9992
2 40216  89.5916 156.9357 0071101 191.5474 168.4078 13.99507681636626

Suivez SCOUT G-1 DEB en temps réel avec AllMySat

Download on the App Store